Regional Weather Roundup
Issued by NWS

Home | Current Version | Previous Version | Text Only | Print | Product List | Glossary On
Versions: 1 2 3 4 5 6 7 8 9 10 11 12 13 14 15 16 17 18 19 20 21 22 23 24 25 26 27 28 29 30 31 32 33 34 35 36 37 38 39 40 41 42 43 44 45 46 47 48 49 50
527
ASUS44 KLIX 311505
RWRLA
LOUISIANA WEATHER ROUNDUP
NATIONAL WEATHER SERVICE NEW ORLEANS LA
1000 AM CDT FRI OCT 31 2014

NOTE: "FAIR" INDICATES FEW OR NO CLOUDS BELOW 12,000 FEET WITH NO
      SIGNIFICANT WEATHER AND/OR OBSTRUCTIONS TO VISIBILITY.
      SKY/WX - SKY CONDITION AND SIGNIFICANT WEATHER.
      TMP - AIR TEMPERATURE.    DP   - DEWPOINT TEMPERATURE.
      RH  - RELATIVE HUMIDITY.  PRES - PRESSURE.
      HX  - HEAT INDEX.         WCI  - WIND CHILL INDEX.

*  THESE STATIONS ARE NOT NWS OR FAA STATIONS AND ARE NOT UNDER
   NWS QUALITY CONTROL.

LAZ040-048-061>063-065-066-069-311600-
SOUTHEAST LOUISIANA

CITY           SKY/WX    TMP DP  RH WIND       PRES   REMARKS
N.O. AUDUBON   NOT AVBL
N.O. INTL ARPT MOSUNNY   66  51  58 NW9       30.07S
N.O. LAKEFRONT SUNNY     68  51  54 NW12      30.07S
N.O. DOWNTOWN* FAIR      68  46  45 N7        30.07S
SLIDELL        SUNNY     64  47  53 VRB3      30.05S
BATON ROUGE    SUNNY     64  48  56 NW7       30.08S
BOOTHVILLE     SUNNY     69  48  47 N12       30.07R
BELLE CHASSE   SUNNY     69  49  48 NW3       30.06S
BOGALUSA*        N/A     66  49  54 NW7       30.06F
NEW ROADS*     FAIR      62  49  62 N9        30.10S
GONZALES*      FAIR      65  49  56 NW6       30.08S
HAMMOND*       SUNNY     66  46  48 NW8       30.08S
HOUMA*         SUNNY     66  48  52 NW6       30.09R
PORT FOURCHON* SUNNY     70  48  46 N9        30.11S

$$

LAZ041-044-053-054-311600-
SOUTHWEST LOUISIANA

CITY           SKY/WX    TMP DP  RH WIND       PRES   REMARKS
LAKE CHARLES   SUNNY     67  48  50 N14       30.13R
LAFAYETTE      SUNNY     67  46  47 N13       30.11R
PATTERSON      SUNNY     66  54  63 NW7       30.12S
SALT POINT       N/A     68  50  52 NW6       30.09S
NEW IBERIA     SUNNY     68  49  50 N12       30.11R
CHENAULT AIRPK SUNNY     64  48  55 N10G17    30.13S

$$

LAZ027-028-311600-
CENTRAL LOUISIANA

CITY           SKY/WX    TMP DP  RH WIND       PRES   REMARKS
FORT POLK      NOT AVBL
ALEXANDRIA INT SUNNY     60  49  66 N8        30.13R
ALEXANDRIA     SUNNY     63  46  54 N9        30.14R

$$

LAZ001-002-311600-
NORTHWEST LOUISIANA

CITY           SKY/WX    TMP DP  RH WIND       PRES   REMARKS
SHREVEPORT     SUNNY     62  45  53 N18G24    30.20R
BARKSDALE AFB  SUNNY     61  46  56 N12       30.20R
DTN SHREVEPORT SUNNY     60  45  57 N14       30.20R

$$

LAZ014-016-311600-
NORTHEAST LOUISIANA

CITY           SKY/WX    TMP DP  RH WIND       PRES   REMARKS
MONROE         SUNNY     61  47  59 N15       30.15R
TALLULAH       SUNNY     62  48  60 N9        30.10R

$$




USA.gov is the U.S. government's official web portal to all federal, state and local government web resources and services.